Regional Weather Roundup
Issued by NWS

Home | Current Version | Previous Version | Text Only | Print | Product List | Glossary Off
Versions: 1 2 3 4 5 6 7 8 9 10 11 12 13 14 15 16 17 18 19 20 21 22 23 24 25 26 27 28 29 30 31 32 33 34 35 36 37 38 39 40 41 42 43 44 45 46 47 48 49 50

000
ASUS43 KIND 221309
RWRIN

WEATHER ROUNDUP FOR INDIANA
NATIONAL WEATHER SERVICE INDIANAPOLIS IN
800 AM EST THU FEB 22 2018

NOTE: "FAIR" INDICATES FEW OR NO CLOUDS BELOW 12,000 FEET WITH NO
SIGNIFICANT WEATHER AND/OR OBSTRUCTIONS TO VISIBILITY.

* - STATION DOES NOT REPORT WEATHER SUCH AS PRECIPITATION OR FOG.

+ - STATION NOT QUALITY CONTROLLED BY THE NATIONAL WEATHER SERVICE.
    USE DATA WITH CAUTION...ESPECIALLY DEWPOINT AND RELATIVE
    HUMIDITY OBSERVATIONS.

INZ001>003-010>013-019-020-221400-
NORTHWEST INDIANA

CITY           SKY/WX    TMP DP  RH WIND       PRES   REMARKS
LA PORTE +     CLOUDY    32  30  91 NE6       30.53R WCI  26
MICHIGAN CITY+ CLOUDY    32  30  93 NE3       30.54R
MONTICELLO +   RAIN      34  33  95 E9        30.49R WCI  26
RENSSELAER +   CLOUDY    34  32  93 NE8       30.49S FOG     WCI  27
VALPARAISO     CLOUDY    34  30  85 NE7       30.52R WCI  28

$$

LMZ046-743>745-221400-
SOUTHERN LAKE MICHIGAN

STATION/POSITION TIME  TEMP    WIND        PRES    WAVE
                       AIR SEA DIR/SP/G            HT
                 (UTC) (F)     (DEG/KT/KT) (MB)    (FT)
BURNS HARBOR     1230   32      40/ 16/ 18 1034.2R
MICHIGAN CITY    1240   31      30/ 15/ 16   N/A

$$

INZ004-005-014>016-021>024-221400-
NORTH CENTRAL INDIANA

CITY           SKY/WX    TMP DP  RH WIND       PRES   REMARKS
ELKHART        FAIR      34  28  80 NE7       30.53R WCI  28
GOSHEN         CLOUDY    33  26  75 E13       30.51R WCI  24
LOGANSPORT +   RAIN      32  32 100 NE7       30.51S WCI  26
PERU/GRISSOM   DRIZZLE   33  33 100 NE13      30.49R FOG     WCI  24
ROCHESTER +    LGT RAIN  36  32  87 E10       30.51R WCI  28
SOUTH BEND     CLOUDY    32  28  85 NE7       30.53R WCI  26
WARSAW +       RAIN      32  30  93 NE12      30.51R WCI  23

$$

INZ006>009-017-018-025>027-221400-
NORTHEAST INDIANA

CITY           SKY/WX    TMP DP  RH WIND       PRES   REMARKS
AUBURN +       CLOUDY    32  30  93 N10       30.53R WCI  24
FORT WAYNE     CLOUDY    33  30  88 N14       30.51R WCI  23
HUNTINGTON +   CLOUDY    32  30  92 NE9       30.53R WCI  24
KENDALLVILLE + LGT SNOW  32  28  86 E10       30.52R WCI  23

$$

INZ028-029-035-036-043>045-051>053-221400-
WEST CENTRAL INDIANA

CITY           SKY/WX    TMP DP  RH WIND       PRES   REMARKS
CRAWFORDSVL +  CLOUDY    33  33 100 NE12        N/A  FOG     WCI  24
GREENCASTLE +  CLOUDY    36  34  93 NE14      30.43S FOG     WCI  27
LAFAYETTE      CLOUDY    35  34  96 NE14      30.46F WCI  26
TERRE HAUTE    LGT RAIN  38  37  97 NE13      30.41S WCI  30

$$

INZ030>032-037>040-046>048-054>057-064-065-221400-
CENTRAL INDIANA

CITY           SKY/WX    TMP DP  RH WIND       PRES   REMARKS
COLUMBUS       CLOUDY    37 N/A N/A NE12      30.36R WCI  30
FISHERS *+     CLOUDY    34  34 100 N7        30.48R WCI  28
GREENWOOD *+   CLOUDY   N/A N/A N/A N6        30.41R
INDIANAPOLIS   RAIN      37  36  96 N15       30.45R FOG     WCI  28
-EAGLE CREEK   RAIN      37  34  89 N10       30.45R FOG     WCI  30
KOKOMO +       LGT RAIN  34  30  86 NE14      30.50R FOG     WCI  24
MARION +       CLOUDY    32  31  94 N12       30.52R WCI  23
MT COMFORT *+  CLOUDY    36  36 100 N13       30.44R WCI  27
SHELBYVILLE    CLOUDY    41  36  82 N8        30.39R
ZIONSVILLE +   RAIN      33  33  98 N10       30.48R WCI  25

$$

INZ033-034-041-042-049-050-058-059-221400-
EAST CENTRAL INDIANA

CITY           SKY/WX    TMP DP  RH WIND       PRES   REMARKS
MUNCIE         CLOUDY    36  32  85 NE10      30.43R WCI  28
RICHMOND +     MOCLDY    34  34 100 E31G39    30.25F WCI  20

$$

INZ060-061-067>069-081>083-085>088-221400-
SOUTHWEST INDIANA

CITY           SKY/WX    TMP DP  RH WIND       PRES   REMARKS
EVANSVILLE     CLOUDY    42  42 100 N12       30.35R
HUNTINGBURG +  LGT RAIN  43  41  93 N12       30.36R
WASHINGTON +   DRIZZLE   40  39  94 N9        30.38S WCI  35

$$

INZ062-063-066-070>080-084-089>092-221400-
SOUTH CENTRAL AND SOUTHEAST INDIANA

CITY           SKY/WX    TMP DP  RH WIND       PRES   REMARKS
BATESVILLE +   CLOUDY    39  39 100 MISG      30.32R
BEDFORD +      CLOUDY    39  37  93 N3        30.37R
BLOOMINGTON    LGT RAIN  41  39  93 N7        30.41R FOG
FRENCH LICK *+ CLOUDY    41 N/A N/A NW6       30.38R
MADISON *+     CLOUDY    39  37  93 E14G21    30.31S WCI  31
NORTH VERNON + MOCLDY    39  37  93 E6        30.31F WCI  35
SEYMOUR +      CLOUDY    43  39  87 N5        30.34R

$$





USA.gov is the U.S. government's official web portal to all federal, state and local government web resources and services.